Stations météo

Publicité
Paris-Montsouris, France (7156): Température de l'air & dewpoint: 15.06.2018 01:00:00 - 21.06.2018 01:00:00 (CEST)Paris-Montsouris, France (7156): Température de l'air 5cm: 15.06.2018 01:00:00 - 21.06.2018 01:00:00 (CEST)Paris-Montsouris, France (7156): Température de l'air -20cm & Température de l'air -100cm: 15.06.2018 01:00:00 - 21.06.2018 01:00:00 (CEST)Paris-Montsouris, France (7156): Vitesse du vent & gusts: 15.06.2018 01:00:00 - 21.06.2018 01:00:00 (CEST)Paris-Montsouris, France (7156): Direction du vent: 15.06.2018 01:00:00 - 21.06.2018 01:00:00 (CEST)Paris-Montsouris, France (7156): reduced air pressure: 15.06.2018 01:00:00 - 21.06.2018 01:00:00 (CEST)Paris-Montsouris, France (7156): visibility: 15.06.2018 01:00:00 - 21.06.2018 01:00:00 (CEST)Paris-Montsouris, France (7156): Ensoleillement: 15.06.2018 01:00:00 - 21.06.2018 01:00:00 (CEST)Paris-Montsouris, France (7156): Quantités de précipitations: 15.06.2018 01:00:00 - 21.06.2018 01:00:00 (CEST)
Date & Time tt [°C] td [°C] tt 5cm [°C] tt -20cm [°C] tt -100cm [°C] ff [km/h] ff [knt] fx [km/h] fx [knt] dd ppp [hPa] vv [km] sd [min] rr [mm]
21.06.2018 01:00:00 - - - - - - - - - - - - - -
21.06.2018 00:00:00 22,7 14,5 14,5 20,1 16,5 6 4 16 8 N 1019,5 20 0 0,0
20.06.2018 23:00:00 23,2 14,5 15,4 20,1 16,5 9 5 23 13 N 1019,7 20 0 0,0
20.06.2018 22:00:00 24,7 15,1 18,3 20,1 16,5 12 7 24 13 N 1019,2 20 28 0,0
20.06.2018 21:00:00 26,4 14,8 21,3 20,1 16,5 11 6 22 12 N 1018,9 20 60 0,0
20.06.2018 20:00:00 28,2 13,3 25,2 20,0 16,5 8 5 29 15 NW 1019,0 20 60 0,0
20.06.2018 19:00:00 28,7 11,7 33,3 19,9 16,5 9 5 23 12 NNW 1019,2 20 60 0,0
20.06.2018 18:00:00 28,4 13,5 35,8 19,8 16,5 13 7 25 14 NW 1019,5 20 60 0,0
20.06.2018 17:00:00 28,0 16,0 28,2 19,6 16,5 5 3 23 13 N 1020,0 20 51 0,0
20.06.2018 16:00:00 28,2 15,1 28,8 19,4 16,5 8 4 25 13 NNW 1020,2 20 48 0,0
20.06.2018 15:00:00 27,1 15,1 31,0 19,2 16,5 6 3 23 12 N 1020,7 20 38 0,0
20.06.2018 14:00:00 25,9 15,3 28,8 18,9 16,5 9 5 18 10 NNE 1021,2 20 48 0,0
20.06.2018 13:00:00 26,3 17,6 36,0 18,8 16,5 5 3 16 8 SSW 1021,8 20 60 0,0
20.06.2018 12:00:00 24,9 16,1 35,4 18,6 16,5 4 2 16 9 ESE 1022,2 20 60 0,0
20.06.2018 11:00:00 24,3 16,6 32,6 18,5 16,5 5 3 16 9 ENE 1022,4 20 60 0,0
20.06.2018 10:00:00 23,6 16,6 29,4 18,5 16,5 9 5 23 13 SSE 1022,7 20 60 0,0
20.06.2018 09:00:00 22,3 16,3 22,4 18,6 16,5 8 4 19 10 SSE 1022,6 20 60 0,0
20.06.2018 08:00:00 18,4 15,8 13,0 18,7 16,5 5 3 17 9 SSE 1022,8 20 60 0,0
20.06.2018 07:00:00 17,2 15,4 10,5 18,8 16,5 4 2 10 6 ESE 1023,0 20 32 0,0
20.06.2018 06:00:00 16,6 14,8 10,4 18,9 16,5 5 3 14 8 E 1023,1 20 0 0,0
20.06.2018 05:00:00 17,1 14,9 10,9 19,0 16,5 6 4 16 9 E 1023,3 20 0 0,0
20.06.2018 04:00:00 17,5 14,9 11,3 19,1 16,5 5 3 20 11 E 1023,5 20 0 0,0
20.06.2018 03:00:00 17,8 14,7 11,5 19,2 16,5 6 3 15 8 E 1023,7 20 0 0,0
20.06.2018 02:00:00 18,5 14,8 12,2 19,3 16,5 9 5 19 10 NE 1023,9 20 0 0,0
20.06.2018 01:00:00 18,9 14,8 12,7 19,4 16,5 8 4 19 11 NE 1024,1 20 0 0,0
20.06.2018 00:00:00 19,3 15,0 13,1 19,5 16,5 7 4 20 11 NE 1024,2 20 0 0,0
19.06.2018 23:00:00 20,0 15,0 14,2 19,5 16,5 9 5 25 13 NE 1024,4 19 0 0,0
19.06.2018 22:00:00 21,0 15,3 16,2 19,5 16,5 12 7 23 12 NNE 1024,1 20 28 0,0
19.06.2018 21:00:00 23,3 15,6 19,8 19,5 16,5 11 6 22 12 NE 1023,8 20 60 0,0
19.06.2018 20:00:00 25,1 15,7 24,4 19,4 16,5 8 4 21 11 NNE 1023,8 20 60 0,0
19.06.2018 19:00:00 25,4 16,0 30,8 19,2 16,5 5 3 21 11 WNW 1024,1 20 60 0,0
19.06.2018 18:00:00 25,0 15,3 34,9 19,1 16,5 6 3 18 10 N 1024,5 20 60 0,0
19.06.2018 17:00:00 25,2 16,1 35,5 18,9 16,4 7 4 18 10 WNW 1024,8 20 60 0,0
19.06.2018 16:00:00 23,6 15,6 28,7 18,8 16,5 8 4 19 10 W 1025,3 20 21 0,0
19.06.2018 15:00:00 23,1 15,7 27,6 18,7 16,5 6 3 18 10 W 1025,6 20 16 0,0
19.06.2018 14:00:00 21,6 15,2 24,9 18,7 16,5 7 4 16 9 W 1026,0 20 1 0,0
19.06.2018 13:00:00 20,5 15,3 23,2 18,6 16,5 5 3 16 8 W 1026,3 20 0 0,0
19.06.2018 12:00:00 19,5 15,2 20,7 18,6 16,5 5 3 14 7 W 1026,3 20 0 0,0
19.06.2018 11:00:00 19,0 15,5 20,4 18,6 16,5 3 2 13 7 NNW 1026,5 20 0 0,0
19.06.2018 10:00:00 18,4 15,3 18,0 18,6 16,4 4 2 11 6 WSW 1026,7 20 0 0,0
19.06.2018 09:00:00 17,5 14,9 17,6 18,6 16,5 5 3 12 7 N 1026,5 14 0 0,0
19.06.2018 08:00:00 17,5 14,6 17,0 18,7 16,4 7 4 20 11 N 1026,3 17 0 0,0
19.06.2018 07:00:00 17,4 14,3 16,9 18,7 16,5 10 5 22 12 NNW 1026,1 19 0 0,0
19.06.2018 06:00:00 17,5 14,4 16,9 18,8 16,4 8 5 23 12 NW 1025,9 20 0 0,0
19.06.2018 05:00:00 17,5 14,2 16,8 18,8 16,4 9 5 32 17 NW 1025,3 20 0 0,0
19.06.2018 04:00:00 17,8 13,9 16,9 18,9 16,4 12 7 31 17 N 1025,1 20 0 0,0
19.06.2018 03:00:00 18,1 13,8 16,8 19,0 16,5 13 7 39 21 NNW 1024,9 20 0 0,0
19.06.2018 02:00:00 18,6 13,5 14,1 19,1 16,5 13 7 33 18 NNW 1024,9 20 0 0,0
19.06.2018 01:00:00 18,9 13,3 12,6 19,1 16,5 7 4 22 12 WNW 1024,4 20 0 0,0
19.06.2018 00:00:00 19,7 12,9 14,1 19,2 16,5 5 3 19 10 WNW 1024,5 20 0 0,0
18.06.2018 23:00:00 20,2 12,9 14,6 19,3 16,5 6 3 21 12 W 1024,1 20 0 0,0
18.06.2018 22:00:00 21,0 13,2 16,6 19,3 16,5 9 5 26 14 WNW 1023,7 20 28 0,0
18.06.2018 21:00:00 22,1 13,2 18,9 19,2 16,4 9 5 28 15 W 1023,1 20 60 0,0
18.06.2018 20:00:00 23,3 13,2 22,0 19,2 16,4 11 6 28 15 WNW 1022,9 20 60 0,0
18.06.2018 19:00:00 23,4 13,3 24,8 19,1 16,4 10 5 26 14 W 1022,5 20 53 0,0
18.06.2018 18:00:00 22,8 13,3 24,9 19,0 16,4 13 7 33 18 W 1022,7 20 37 0,0
18.06.2018 17:00:00 23,0 14,0 26,1 18,9 16,5 13 7 34 18 WNW 1022,9 20 35 0,0
18.06.2018 16:00:00 22,9 15,2 26,6 18,8 16,5 15 8 32 18 W 1023,2 20 31 0,0
18.06.2018 15:00:00 22,1 15,2 24,5 18,6 16,4 14 8 33 18 W 1023,2 19 15 0,0
18.06.2018 14:00:00 21,3 14,5 26,9 18,5 16,4 13 7 32 17 W 1023,1 20 29 0,0
18.06.2018 13:00:00 20,8 15,6 23,8 18,4 16,4 13 7 34 19 WNW 1023,2 20 13 0,2
18.06.2018 12:00:00 20,9 16,1 21,5 18,4 16,4 7 4 22 12 W 1022,7 20 20 0,0
18.06.2018 11:00:00 18,0 15,4 17,2 18,4 16,4 8 4 19 10 WSW 1022,9 20 0 0,0
18.06.2018 10:00:00 17,2 15,4 17,1 18,3 16,4 7 4 22 12 SW 1022,9 8 0 0,2
18.06.2018 09:00:00 18,0 14,1 18,9 18,4 16,4 9 5 24 13 WSW 1022,3 20 2 0,0
18.06.2018 08:00:00 17,6 13,7 17,1 18,4 16,5 8 4 20 11 WSW 1022,2 20 3 0,0
18.06.2018 07:00:00 17,0 13,3 16,1 18,4 16,5 9 5 21 11 SW 1021,8 20 0 0,0
18.06.2018 06:00:00 17,0 12,9 16,0 18,5 16,5 6 3 22 12 SW 1021,9 20 0 0,0
18.06.2018 05:00:00 17,1 12,6 16,1 18,5 16,4 9 5 22 12 W 1021,5 20 0 0,0
18.06.2018 04:00:00 17,2 12,5 15,5 18,6 16,4 9 5 24 13 W 1021,4 20 0 0,0
18.06.2018 03:00:00 17,6 12,3 15,9 18,6 16,4 11 6 25 14 W 1021,5 20 0 0,0
18.06.2018 02:00:00 18,3 11,8 16,9 18,7 16,5 11 6 30 16 W 1021,4 20 0 0,0
18.06.2018 01:00:00 18,4 11,5 16,4 18,7 16,4 8 5 21 11 SW 1021,4 20 0 0,0
18.06.2018 00:00:00 18,6 10,9 15,8 18,8 16,5 6 3 19 11 WSW 1021,5 18 0 0,0
17.06.2018 23:00:00 19,1 10,4 17,1 18,8 16,4 10 5 26 14 W 1021,4 20 0 0,0
17.06.2018 22:00:00 19,3 10,3 17,3 18,8 16,4 13 7 23 12 W 1021,0 20 0 0,0
17.06.2018 21:00:00 19,6 10,0 18,1 18,8 16,4 10 5 29 16 WSW 1020,7 20 0 0,0
17.06.2018 20:00:00 20,5 9,7 18,8 18,8 16,4 10 6 26 14 W 1020,8 20 26 0,0
17.06.2018 19:00:00 21,7 10,8 21,1 18,7 16,4 11 6 29 16 WSW 1020,3 20 38 0,0
17.06.2018 18:00:00 20,3 9,8 23,1 18,7 16,4 9 5 29 16 WNW 1020,6 20 25 0,0
17.06.2018 17:00:00 20,3 9,5 23,2 18,6 16,4 6 3 25 14 W 1020,5 20 18 0,0
17.06.2018 16:00:00 19,5 9,9 23,1 18,5 16,4 11 6 32 17 WSW 1020,7 20 17 0,0
17.06.2018 15:00:00 19,3 10,3 20,5 18,5 16,5 14 8 26 14 W 1020,6 20 11 0,0
17.06.2018 14:00:00 18,3 9,9 18,6 18,4 16,4 13 7 36 19 W 1020,9 20 3 0,0
17.06.2018 13:00:00 17,8 9,2 21,2 18,4 16,4 14 8 30 16 W 1020,9 20 3 0,0
17.06.2018 12:00:00 17,2 8,9 18,9 18,4 16,4 14 8 25 14 W 1020,9 20 20 0,0
17.06.2018 11:00:00 16,6 8,8 18,0 18,4 16,4 9 5 26 14 W 1021,1 20 0 0,0
17.06.2018 10:00:00 15,7 8,4 17,9 18,4 16,4 10 5 24 13 WNW 1021,1 20 0 0,0
17.06.2018 09:00:00 15,5 8,9 15,6 18,5 16,4 10 6 19 11 W 1020,7 20 4 0,0
17.06.2018 08:00:00 14,9 8,6 14,2 18,5 16,4 8 4 20 11 W 1020,0 20 16 0,0
17.06.2018 07:00:00 14,7 8,6 13,2 18,6 16,4 8 5 26 14 NW 1019,8 20 0 0,0
17.06.2018 06:00:00 15,3 9,0 13,5 18,7 16,4 9 5 35 19 WNW 1019,2 20 0 0,0
17.06.2018 05:00:00 15,5 10,3 13,6 18,8 16,4 11 6 32 18 NW 1019,0 20 0 0,0
17.06.2018 04:00:00 15,9 11,1 14,3 18,9 16,4 14 8 33 18 NW 1018,9 20 0 0,0
17.06.2018 03:00:00 17,5 10,8 14,8 18,9 16,4 8 5 26 14 WNW 1018,3 20 0 0,0
17.06.2018 02:00:00 18,0 10,4 15,0 19,0 16,4 6 3 23 12 WNW 1018,0 20 0 0,0
17.06.2018 01:00:00 18,5 10,3 15,2 19,1 16,5 6 4 23 12 WNW 1018,0 20 0 0,0
17.06.2018 00:00:00 19,0 9,7 15,7 19,1 16,4 9 5 22 12 WNW 1017,9 20 0 0,0
16.06.2018 23:00:00 19,8 10,2 17,3 19,2 16,4 8 4 20 11 WNW 1017,8 20 0 0,0
16.06.2018 22:00:00 20,0 9,8 17,3 19,2 16,4 7 4 23 12 WNW 1017,2 20 0 0,0
16.06.2018 21:00:00 20,4 9,9 18,7 19,2 16,4 9 5 25 13 W 1017,1 20 10 0,0
16.06.2018 20:00:00 20,8 10,0 19,9 19,2 16,5 11 6 32 17 WNW 1016,8 20 38 0,0
16.06.2018 19:00:00 21,8 10,6 21,4 19,1 16,4 9 5 29 15 WNW 1016,6 20 6 0,0
16.06.2018 18:00:00 22,0 9,5 24,4 19,0 16,4 14 7 34 19 W 1016,3 20 30 0,0
16.06.2018 17:00:00 22,6 9,7 26,8 18,8 16,4 10 6 28 15 W 1016,4 20 46 0,0
16.06.2018 16:00:00 22,1 10,9 26,9 18,7 16,4 11 6 29 16 W 1016,5 20 53 0,0
16.06.2018 15:00:00 21,6 11,6 25,1 18,5 16,4 11 6 33 18 W 1016,5 20 42 0,0
16.06.2018 14:00:00 20,7 9,6 23,7 18,4 16,4 13 7 28 15 W 1016,9 20 44 0,0
16.06.2018 13:00:00 20,6 13,3 22,3 18,3 16,5 9 5 27 15 W 1017,1 20 27 0,0
16.06.2018 12:00:00 18,8 10,6 25,0 18,2 16,5 6 4 19 10 NNW 1017,5 20 50 0,0
16.06.2018 11:00:00 17,3 9,0 22,2 18,2 16,4 5 3 18 10 NW 1017,8 20 44 0,0
16.06.2018 10:00:00 16,6 9,5 14,9 18,3 16,4 9 5 25 14 NNW 1017,9 20 14 0,0
16.06.2018 09:00:00 15,5 8,5 15,4 18,3 16,5 7 4 21 11 NW 1017,7 20 0 0,0
16.06.2018 08:00:00 15,3 7,8 14,5 18,4 16,5 2 1 16 8 N 1017,2 20 0 0,0
16.06.2018 07:00:00 15,0 7,8 13,8 18,4 16,4 7 4 16 9 NNW 1017,0 20 0 0,0
16.06.2018 06:00:00 14,9 7,9 13,8 18,5 16,5 7 4 22 12 NNW 1017,0 20 0 0,0
16.06.2018 05:00:00 15,2 8,4 12,2 18,6 16,5 8 5 21 11 N 1017,0 20 0 0,0
16.06.2018 04:00:00 15,3 8,3 13,0 18,7 16,5 12 6 26 14 NNE 1017,0 20 0 0,0
16.06.2018 03:00:00 16,0 8,7 13,7 18,8 16,5 13 7 28 15 NNE 1017,4 20 0 0,0
16.06.2018 02:00:00 16,7 9,9 13,6 18,9 16,5 12 6 21 12 N 1017,5 20 0 0,0
16.06.2018 01:00:00 16,9 11,0 13,5 18,9 16,5 10 5 22 12 NNE 1017,4 20 0 0,0
16.06.2018 00:00:00 17,0 11,5 13,2 19,0 16,5 16 8 33 18 NNE 1017,1 20 0 0,0
15.06.2018 23:00:00 18,9 12,4 14,7 19,0 16,5 16 9 32 17 NNE 1017,1 20 0 0,0
15.06.2018 22:00:00 20,5 10,9 14,4 19,0 16,5 8 4 16 9 NNW 1016,4 20 0 0,0
15.06.2018 21:00:00 21,6 10,1 18,1 19,0 16,5 11 6 23 12 NNW 1016,4 20 57 0,0
15.06.2018 20:00:00 23,3 10,7 22,1 18,9 16,5 9 5 22 12 NW 1016,1 20 60 0,0
15.06.2018 19:00:00 23,2 11,6 22,4 18,8 16,5 8 4 27 15 NNW 1016,1 20 44 0,0
15.06.2018 18:00:00 23,7 11,4 26,5 18,7 16,5 8 5 24 13 W 1016,2 20 39 0,0
15.06.2018 17:00:00 24,0 12,6 27,3 18,6 16,5 5 3 30 16 WNW 1016,3 20 47 0,0
15.06.2018 16:00:00 23,4 12,4 25,4 18,4 16,5 6 4 22 12 WSW 1016,7 20 34 0,0
15.06.2018 15:00:00 21,7 12,0 25,0 18,2 16,5 5 3 21 11 W 1016,9 20 26 0,0
15.06.2018 14:00:00 21,4 12,0 24,1 18,1 16,5 8 4 23 12 WNW 1017,1 20 18 0,0
15.06.2018 13:00:00 21,1 14,0 24,9 18,0 16,5 9 5 23 12 SW 1017,3 20 28 0,0
15.06.2018 12:00:00 20,1 12,8 24,4 17,9 16,5 5 3 18 10 W 1017,5 20 37 0,0
15.06.2018 11:00:00 19,4 11,7 25,2 17,8 16,5 4 2 13 7 SE 1017,6 20 45 0,0
15.06.2018 10:00:00 18,5 12,7 19,9 17,8 16,5 5 3 12 7 SSE 1018,1 20 42 0,0
15.06.2018 09:00:00 16,6 11,3 17,1 17,9 16,5 7 4 - - N 1018,0 20 13 0,0
15.06.2018 08:00:00 15,8 11,0 12,6 17,9 16,5 4 2 11 6 N 1017,7 20 11 0,0
15.06.2018 07:00:00 14,7 10,9 12,6 18,0 16,5 5 3 16 9 N 1017,3 20 0 0,0
15.06.2018 06:00:00 14,7 12,4 8,9 18,1 16,5 10 5 18 10 NNW 1017,2 20 0 0,0
15.06.2018 05:00:00 14,6 13,3 9,0 18,1 16,5 4 2 10 5 NW 1017,0 16 0 0,0
15.06.2018 04:00:00 15,6 14,3 10,1 18,2 16,5 3 2 9 5 WNW 1017,1 20 0 0,0
15.06.2018 03:00:00 15,3 14,0 10,1 18,3 16,5 6 3 9 5 W 1017,3 19 0 0,0
15.06.2018 02:00:00 15,8 14,0 11,7 18,4 16,5 4 2 15 8 W 1017,5 20 0 0,0
15.06.2018 01:00:00 16,1 13,9 11,7 18,4 16,5 4 2 13 7 WSW 1017,8 20 0 0,0

tt = Température de l'air
td = dewpoint
tt 5cm = Température de l'air 5cm
tt -20cm = Température de l'air -20cm
tt -100cm = Température de l'air -100cm
ff = Vitesse du vent
fx = gusts
dd = Direction du vent
ppp = reduced air pressure
vv = visibility
sd = Ensoleillement
rr = Quantités de précipitations

stations d'obs. à proximité